(2020 FM6) |
Classification: Apollo [NEO, PHA] SPK-ID: 54016410 |
[ hide orbit diagram ]
For accurate long-term ephemerides, please instead use our Horizons system.This orbit viewer was implemented using two-body methods, and hence should not be used for determining accurate long-term trajectories (over several years or decades) or planetary encounter circumstances.
Orbital Elements at Epoch 2459200.5 (2020-Dec-17.0) TDB
Reference: JPL 20 (heliocentric ecliptic J2000)
Element | Value | Uncertainty (1-sigma) | Units |
e | .4939948071304527 | 5.8006e-05 | |
a | 1.364644218379489 | 0.00012115 | au |
q | .6905170609194258 | 1.7887e-05 | au |
i | 14.98599045439463 | 0.0016687 | deg |
node | 30.48831646651714 | 0.00011908 | deg |
peri | 276.1139391407103 | 0.001237 | deg |
M | 109.4726215971544 | 0.012774 | deg |
tp | 2459023.435864271776 (2020-Jun-22.93586427) | 0.0029182 | TDB |
period | 582.2742520657577 1.59 | 0.077538 0.0002123 | d yr |
n | .6182653598760612 | 8.2331e-05 | deg/d |
Q | 2.038771375839552 | 0.00018099 | au |
|
| | Orbit Determination Parameters
Additional Information
|
[ show covariance matrix ]
Physical Parameter Table
Parameter |
Symbol |
Value |
Units |
Sigma |
Reference |
Notes |
absolute magnitude |
H |
21.9 |
|
.41458 |
E2020-HD8 |
autocmod 2.8 |
|
[ show close-approach data ]
|